Latest Weather Observations for Bathurst Agricultural Station
Issued at 6:23 pm EST Saturday 9 May 2026 (issued every 10 minutes, with the page automatically refreshed every 10 minutes)
| Station Details | ID: 063309 | Name: BATHURST AGRICULTURAL STATION | Lat: -33.43 | Lon: 149.56 | Height: 713.65 m |
| Date/Time EST |
Temp °C |
App Temp °C |
Dew Point °C |
Rel Hum % |
Delta-T °C |
Wind | Press QNH hPa |
Press MSL hPa |
Rain since 9am mm |
|||||
|---|---|---|---|---|---|---|---|---|---|---|---|---|---|---|
| Dir | Spd km/h |
Gust km/h |
Spd kts |
Gust kts |
||||||||||
| 09/06:00pm | 12.9 | - | 7.4 | 69 | 2.8 | - | - | - | - | - | 1025.0 | 1025.0 | 0.0 | |
| 09/05:30pm | 13.6 | - | 8.0 | 69 | 2.9 | - | - | - | - | - | 1024.7 | 1024.7 | 0.0 | |
| 09/05:00pm | 14.4 | - | 6.3 | 58 | 4.0 | - | - | - | - | - | 1024.4 | 1024.4 | 0.0 | |
| 09/04:30pm | 16.8 | - | 5.7 | 48 | 5.6 | - | - | - | - | - | 1024.2 | 1024.1 | 0.0 | |
| 09/04:00pm | 18.1 | - | 6.6 | 47 | 5.9 | - | - | - | - | - | 1024.0 | 1023.9 | 0.0 | |
| 09/03:30pm | 18.1 | - | 6.0 | 45 | 6.2 | - | - | - | - | - | 1024.0 | 1023.9 | 0.0 | |
| 09/03:00pm | 17.4 | - | 5.4 | 45 | 6.0 | - | - | - | - | - | 1023.9 | 1023.8 | 0.0 | |
| 09/02:30pm | 18.0 | - | 5.9 | 45 | 6.2 | - | - | - | - | - | 1023.9 | 1023.8 | 0.0 | |
| 09/02:00pm | 17.0 | - | 5.0 | 45 | 5.9 | - | - | - | - | - | 1023.7 | 1023.7 | 0.0 | |
| 09/01:30pm | 16.8 | - | 4.5 | 44 | 6.0 | - | - | - | - | - | 1024.0 | 1023.9 | 0.0 | |
| 09/01:00pm | 17.1 | - | 5.1 | 45 | 5.9 | - | - | - | - | - | 1024.2 | 1024.1 | 0.0 | |
| 09/12:30pm | 16.6 | - | 5.9 | 49 | 5.4 | - | - | - | - | - | 1024.6 | 1024.6 | 0.0 | |
| 09/12:00pm | 16.0 | - | 5.3 | 49 | 5.3 | - | - | - | - | - | 1025.1 | 1025.1 | 0.0 | |
| 09/11:30am | 15.4 | - | 5.6 | 52 | 4.9 | - | - | - | - | - | 1025.6 | 1025.5 | 0.0 | |
| 09/11:00am | 14.7 | - | 6.3 | 57 | 4.2 | - | - | - | - | - | 1025.8 | 1025.8 | 0.0 | |
| 09/10:30am | 13.2 | - | 6.8 | 65 | 3.2 | - | - | - | - | - | 1025.9 | 1025.9 | 0.0 | |
| 09/10:00am | 12.2 | - | 6.5 | 68 | 2.8 | - | - | - | - | - | 1026.0 | 1026.0 | 0.0 | |
| 09/09:30am | 10.9 | - | 6.8 | 76 | 2.0 | - | - | - | - | - | 1026.0 | 1026.0 | 0.0 | |
| 09/09:00am | 9.4 | - | 6.5 | 82 | 1.4 | - | - | - | - | - | 1026.1 | 1026.1 | 0.0 | |
| 09/08:30am | 8.8 | - | 5.9 | 82 | 1.4 | - | - | - | - | - | 1026.0 | 1026.0 | 0.0 | |
| 09/08:00am | 6.5 | - | 5.9 | 96 | 0.3 | - | - | - | - | - | 1025.8 | 1025.8 | 0.0 | |
| 09/07:30am | 4.4 | - | 4.3 | 99 | 0.0 | - | - | - | - | - | 1025.4 | 1025.3 | 0.0 | |
| 09/07:00am | 3.6 | - | 3.2 | 97 | 0.2 | - | - | - | - | - | 1025.1 | 1025.1 | 0.0 | |
| 09/06:30am | 4.8 | - | 4.4 | 97 | 0.2 | - | - | - | - | - | 1024.7 | 1024.7 | 0.0 | |
| 09/06:00am | 6.2 | - | 5.0 | 92 | 0.5 | - | - | - | - | - | 1024.4 | 1024.4 | 0.0 | |
| 09/05:30am | 6.4 | - | 5.4 | 93 | 0.5 | - | - | - | - | - | 1024.1 | 1024.0 | 0.0 | |
| 09/05:00am | 5.3 | - | 4.6 | 95 | 0.3 | - | - | - | - | - | 1024.1 | 1024.0 | 0.0 | |
| 09/04:30am | 5.7 | - | 4.7 | 93 | 0.5 | - | - | - | - | - | 1024.0 | 1023.9 | 0.0 | |
| 09/04:00am | 7.9 | - | 5.9 | 87 | 0.9 | - | - | - | - | - | 1023.9 | 1023.8 | 0.0 | |
| 09/03:30am | 8.6 | - | 6.4 | 86 | 1.1 | - | - | - | - | - | 1023.7 | 1023.7 | 0.0 | |
| 09/03:00am | 8.8 | - | 6.6 | 86 | 1.1 | - | - | - | - | - | 1023.9 | 1023.8 | 0.0 | |
| 09/02:30am | 9.3 | - | 6.7 | 84 | 1.3 | - | - | - | - | - | 1023.9 | 1023.8 | 0.0 | |
| 09/02:00am | 9.4 | - | 6.7 | 83 | 1.3 | - | - | - | - | - | 1024.0 | 1023.9 | 0.0 | |
| 09/01:30am | 9.5 | - | 6.8 | 83 | 1.3 | - | - | - | - | - | 1023.9 | 1023.8 | 0.0 | |
| 09/01:00am | 9.5 | - | 6.8 | 83 | 1.3 | - | - | - | - | - | 1023.9 | 1023.8 | 0.0 | |
| 09/12:30am | 9.5 | - | 6.9 | 84 | 1.3 | - | - | - | - | - | 1023.9 | 1023.8 | 0.0 | |
| 09/12:00am | 9.5 | - | 6.9 | 84 | 1.3 | - | - | - | - | - | 1023.7 | 1023.7 | 0.0 | |
| Date/Time EST |
Temp °C |
App Temp °C |
Dew Point °C |
Rel Hum % |
Delta-T °C |
Wind | Press QNH hPa |
Press MSL hPa |
Rain since 9am mm |
|||||
|---|---|---|---|---|---|---|---|---|---|---|---|---|---|---|
| Dir | Spd km/h |
Gust km/h |
Spd kts |
Gust kts |
||||||||||
| 08/11:30pm | 9.4 | - | 7.0 | 85 | 1.2 | - | - | - | - | - | 1024.0 | 1023.9 | 0.0 | |
| 08/11:00pm | 9.4 | - | 7.0 | 85 | 1.2 | - | - | - | - | - | 1024.1 | 1024.0 | 0.0 | |
| 08/10:30pm | 9.3 | - | 7.1 | 86 | 1.1 | - | - | - | - | - | 1024.2 | 1024.1 | 0.0 | |
| 08/10:00pm | 9.1 | - | 7.1 | 87 | 1.0 | - | - | - | - | - | 1024.2 | 1024.1 | 0.0 | |
| 08/09:30pm | 9.2 | - | 7.2 | 87 | 1.0 | - | - | - | - | - | 1024.0 | 1023.9 | 0.0 | |
| 08/09:00pm | 9.2 | - | 7.0 | 86 | 1.1 | - | - | - | - | - | 1024.0 | 1023.9 | 0.0 | |
| 08/08:30pm | 9.3 | - | 6.6 | 83 | 1.3 | - | - | - | - | - | 1023.7 | 1023.7 | 0.0 | |
| 08/08:00pm | 9.8 | - | 6.7 | 81 | 1.5 | - | - | - | - | - | 1023.4 | 1023.4 | 0.0 | |
| 08/07:30pm | 9.6 | - | 6.5 | 81 | 1.5 | - | - | - | - | - | 1023.0 | 1022.9 | 0.0 | |
| 08/07:00pm | 9.4 | - | 6.5 | 82 | 1.4 | - | - | - | - | - | 1022.9 | 1022.8 | 0.0 | |
| 08/06:30pm | 9.1 | - | 6.4 | 83 | 1.3 | - | - | - | - | - | 1022.6 | 1022.5 | 0.0 | |
| 08/06:00pm | 8.9 | - | 6.2 | 83 | 1.3 | - | - | - | - | - | 1022.4 | 1022.3 | 0.0 | |
| 08/05:30pm | 8.8 | - | 6.1 | 83 | 1.3 | - | - | - | - | - | 1022.2 | 1022.2 | 0.0 | |
| 08/05:00pm | 8.7 | - | 6.2 | 84 | 1.2 | - | - | - | - | - | 1022.0 | 1022.0 | 0.0 | |
| 08/04:30pm | 8.5 | - | 6.1 | 85 | 1.1 | - | - | - | - | - | 1021.6 | 1021.5 | 0.0 | |
| 08/04:00pm | 8.7 | - | 6.0 | 83 | 1.3 | - | - | - | - | - | 1021.7 | 1021.6 | 0.0 | |
| 08/03:30pm | 8.7 | - | 6.2 | 84 | 1.2 | - | - | - | - | - | 1021.4 | 1021.3 | 0.0 | |
| 08/03:00pm | 8.5 | - | 6.1 | 85 | 1.1 | - | - | - | - | - | 1021.3 | 1021.2 | 0.0 | |
| 08/02:30pm | 8.4 | - | 5.7 | 83 | 1.3 | - | - | - | - | - | 1021.3 | 1021.2 | 0.0 | |
| 08/02:00pm | 9.1 | - | 5.5 | 78 | 1.7 | - | - | - | - | - | 1021.4 | 1021.3 | 0.0 | |
| 08/01:30pm | 8.8 | - | 5.4 | 79 | 1.6 | - | - | - | - | - | 1021.5 | 1021.4 | 0.0 | |
| 08/01:00pm | 8.7 | - | 5.1 | 78 | 1.7 | - | - | - | - | - | 1021.4 | 1021.3 | 0.0 | |
| 08/12:30pm | 9.1 | - | 4.9 | 75 | 2.0 | - | - | - | - | - | 1021.7 | 1021.6 | 0.0 | |
| 08/12:00pm | 9.4 | - | 4.8 | 73 | 2.1 | - | - | - | - | - | 1022.0 | 1022.0 | 0.0 | |
| 08/11:30am | 9.7 | - | 4.7 | 71 | 2.3 | - | - | - | - | - | 1022.1 | 1022.1 | 0.0 | |
| 08/11:00am | 9.0 | - | 5.4 | 78 | 1.7 | - | - | - | - | - | 1022.5 | 1022.4 | 0.0 | |
| 08/10:30am | 7.5 | - | 4.6 | 82 | 1.3 | - | - | - | - | - | 1022.9 | 1022.8 | 0.0 | |
| 08/10:00am | 7.3 | - | 3.9 | 79 | 1.5 | - | - | - | - | - | 1022.9 | 1022.8 | 0.0 | |
| 08/09:30am | 6.5 | - | 3.8 | 83 | 1.2 | - | - | - | - | - | 1023.1 | 1023.0 | 0.0 | |
| 08/09:00am | 6.1 | - | 3.8 | 85 | 1.0 | - | - | - | - | - | 1022.8 | 1022.7 | 0.0 | |
| 08/08:30am | 5.7 | - | 3.4 | 85 | 1.0 | - | - | - | - | - | 1022.5 | 1022.4 | 0.0 | |
| 08/08:00am | 5.7 | - | 2.9 | 82 | 1.2 | - | - | - | - | - | 1022.5 | 1022.4 | 0.0 | |
| 08/07:30am | 5.1 | - | 2.6 | 84 | 1.1 | - | - | - | - | - | 1022.2 | 1022.2 | 0.0 | |
| 08/07:00am | 4.9 | - | 2.1 | 82 | 1.2 | - | - | - | - | - | 1021.8 | 1021.7 | 0.0 | |
| 08/06:30am | 4.7 | - | 1.9 | 82 | 1.2 | - | - | - | - | - | 1021.6 | 1021.5 | 0.0 | |
| 08/06:00am | 4.8 | - | 2.0 | 82 | 1.2 | - | - | - | - | - | 1021.7 | 1021.6 | 0.0 | |
| 08/05:30am | 4.6 | - | 2.0 | 83 | 1.1 | - | - | - | - | - | 1021.5 | 1021.4 | 0.0 | |
| 08/05:00am | 4.4 | - | 1.9 | 84 | 1.0 | - | - | - | - | - | 1021.3 | 1021.2 | 0.0 | |
| 08/04:30am | 4.7 | - | 2.1 | 83 | 1.1 | - | - | - | - | - | 1021.2 | 1021.1 | 0.0 | |
| 08/04:00am | 4.1 | - | 2.1 | 87 | 0.8 | - | - | - | - | - | 1020.9 | 1020.8 | 0.0 | |
| 08/03:30am | 2.3 | - | 1.0 | 91 | 0.5 | - | - | - | - | - | 1021.3 | 1021.2 | 0.0 | |
| 08/03:00am | 2.7 | - | 0.4 | 85 | 0.9 | - | - | - | - | - | 1021.4 | 1021.3 | 0.0 | |
| 08/02:30am | 2.9 | - | 0.8 | 86 | 0.8 | - | - | - | - | - | 1021.3 | 1021.2 | 0.0 | |
| 08/02:00am | 2.6 | - | 0.3 | 85 | 0.9 | - | - | - | - | - | 1021.5 | 1021.4 | 0.0 | |
| 08/01:30am | 3.3 | - | 0.5 | 82 | 1.1 | - | - | - | - | - | 1021.7 | 1021.6 | 0.0 | |
| 08/01:00am | 3.0 | - | 0.2 | 82 | 1.1 | - | - | - | - | - | 1021.7 | 1021.6 | 0.0 | |
| 08/12:30am | 2.5 | - | 0.1 | 84 | 0.9 | - | - | - | - | - | 1021.7 | 1021.6 | 0.0 | |
| 08/12:00am | 1.9 | - | -0.2 | 86 | 0.8 | - | - | - | - | - | 1022.1 | 1022.1 | 0.0 | |
| Date/Time EST |
Temp °C |
App Temp °C |
Dew Point °C |
Rel Hum % |
Delta-T °C |
Wind | Press QNH hPa |
Press MSL hPa |
Rain since 9am mm |
|||||
|---|---|---|---|---|---|---|---|---|---|---|---|---|---|---|
| Dir | Spd km/h |
Gust km/h |
Spd kts |
Gust kts |
||||||||||
| 07/11:30pm | 1.3 | - | -1.3 | 83 | 1.0 | - | - | - | - | - | 1022.0 | 1022.0 | 0.0 | |
| 07/11:00pm | 3.1 | - | -0.2 | 79 | 1.3 | - | - | - | - | - | 1021.9 | 1021.8 | 0.0 | |
| 07/10:30pm | 3.4 | - | -0.2 | 77 | 1.4 | - | - | - | - | - | 1022.2 | 1022.2 | 0.0 | |
| 07/10:00pm | 3.6 | - | -0.2 | 76 | 1.5 | - | - | - | - | - | 1022.0 | 1022.0 | 0.0 | |
| 07/09:30pm | 3.8 | - | 0.0 | 76 | 1.5 | - | - | - | - | - | 1022.1 | 1022.1 | 0.0 | |
| 07/09:00pm | 3.7 | - | -0.5 | 74 | 1.6 | - | - | - | - | - | 1021.9 | 1021.8 | 0.0 | |
| 07/08:30pm | 4.1 | - | -0.7 | 71 | 1.9 | - | - | - | - | - | 1021.7 | 1021.6 | 0.0 | |
| 07/08:00pm | 4.6 | - | -0.8 | 68 | 2.1 | - | - | - | - | - | 1021.5 | 1021.4 | 0.0 | |
| 07/07:30pm | 4.7 | - | -0.7 | 68 | 2.1 | - | - | - | - | - | 1021.7 | 1021.6 | 0.0 | |
| 07/07:00pm | 4.6 | - | -0.8 | 68 | 2.1 | - | - | - | - | - | 1021.4 | 1021.3 | 0.0 | |
| 07/06:30pm | 4.5 | - | -0.9 | 68 | 2.1 | - | - | - | - | - | 1021.0 | 1020.9 | 0.0 | |
| 07/06:00pm | 5.0 | - | -0.8 | 66 | 2.3 | - | - | - | - | - | 1020.3 | 1020.2 | 0.0 | |
| 07/05:30pm | 5.5 | - | -0.8 | 64 | 2.5 | - | - | - | - | - | 1020.2 | 1020.1 | 0.0 | |
| 07/05:00pm | 6.1 | - | -1.1 | 60 | 2.8 | - | - | - | - | - | 1019.6 | 1019.5 | 0.0 | |
| 07/04:30pm | 6.4 | - | -1.0 | 59 | 2.9 | - | - | - | - | - | 1019.2 | 1019.1 | 0.0 | |
| 07/04:00pm | 6.7 | - | -1.9 | 54 | 3.3 | - | - | - | - | - | 1019.0 | 1018.9 | 0.0 | |
| 07/03:30pm | 7.9 | - | -1.6 | 51 | 3.8 | - | - | - | - | - | 1018.8 | 1018.7 | 0.0 | |
| 07/03:00pm | 8.3 | - | -1.8 | 49 | 4.0 | - | - | - | - | - | 1018.5 | 1018.4 | 0.0 | |
| 07/02:30pm | 8.6 | - | -0.9 | 51 | 3.9 | - | - | - | - | - | 1018.5 | 1018.4 | 0.0 | |
| 07/02:00pm | 7.7 | - | -2.0 | 50 | 3.8 | - | - | - | - | - | 1018.2 | 1018.0 | 0.0 | |
| 07/01:30pm | 8.2 | - | -2.4 | 47 | 4.1 | - | - | - | - | - | 1018.3 | 1018.1 | 0.0 | |
| 07/01:00pm | 8.9 | - | -0.9 | 50 | 4.0 | - | - | - | - | - | 1018.2 | 1018.0 | 0.0 | |
| 07/12:30pm | 7.6 | - | -1.9 | 51 | 3.7 | - | - | - | - | - | 1018.1 | 1017.9 | 0.0 | |
| 07/12:00pm | 8.1 | - | -1.7 | 50 | 3.9 | - | - | - | - | - | 1018.3 | 1018.1 | 0.0 | |
| 07/11:30am | 8.1 | - | -0.1 | 56 | 3.4 | - | - | - | - | - | 1018.2 | 1018.0 | 0.0 | |
| 07/11:00am | 7.5 | - | -0.7 | 56 | 3.3 | - | - | - | - | - | 1018.4 | 1018.3 | 0.0 | |
| 07/10:30am | 7.6 | - | 0.3 | 60 | 3.0 | - | - | - | - | - | 1018.1 | 1017.9 | 0.0 | |
| 07/10:00am | 6.6 | - | 0.1 | 63 | 2.6 | - | - | - | - | - | 1018.1 | 1017.9 | 0.0 | |
| 07/09:30am | 6.6 | - | 3.0 | 78 | 1.6 | - | - | - | - | - | 1017.9 | 1017.7 | 0.0 | |
| 07/09:00am | 6.2 | - | 3.7 | 84 | 1.1 | - | - | - | - | - | 1017.5 | 1017.4 | 0.0 | |
| 07/08:30am | 8.7 | - | 6.7 | 87 | 1.0 | - | - | - | - | - | 1016.6 | 1016.4 | 0.0 | |
| 07/08:00am | 8.5 | - | 6.3 | 86 | 1.1 | - | - | - | - | - | 1016.4 | 1016.2 | 0.0 | |
| 07/07:30am | 8.3 | - | 6.1 | 86 | 1.0 | - | - | - | - | - | 1016.2 | 1016.1 | 0.0 | |
| 07/07:00am | 8.0 | - | 5.6 | 85 | 1.1 | - | - | - | - | - | 1016.0 | 1015.9 | 0.0 | |
| 07/06:30am | 7.4 | - | 4.7 | 83 | 1.2 | - | - | - | - | - | 1015.9 | 1015.7 | 0.0 | |
| 07/06:00am | 6.5 | - | 4.5 | 87 | 0.9 | - | - | - | - | - | 1015.8 | 1015.6 | 0.0 | |
| 07/05:30am | 4.6 | - | 3.4 | 92 | 0.5 | - | - | - | - | - | 1016.2 | 1016.1 | 0.0 | |
| 07/05:00am | 5.0 | - | 4.0 | 93 | 0.4 | - | - | - | - | - | 1016.2 | 1016.1 | 0.0 | |
| 07/04:30am | 6.7 | - | 5.3 | 91 | 0.6 | - | - | - | - | - | 1016.6 | 1016.4 | 0.0 | |
| 07/04:00am | 4.8 | - | 4.4 | 97 | 0.2 | - | - | - | - | - | 1016.7 | 1016.5 | 0.0 | |
| 07/03:30am | 4.9 | - | 4.3 | 96 | 0.3 | - | - | - | - | - | 1016.9 | 1016.7 | 0.0 | |
| 07/03:00am | 5.4 | - | 5.0 | 97 | 0.2 | - | - | - | - | - | 1017.3 | 1017.2 | 0.0 | |
| 07/02:30am | 4.3 | - | 4.0 | 98 | 0.1 | - | - | - | - | - | 1017.2 | 1017.1 | 0.0 | |
| 07/02:00am | 4.2 | - | 3.8 | 97 | 0.2 | - | - | - | - | - | 1017.5 | 1017.4 | 0.0 | |
| 07/01:30am | 4.0 | - | 3.4 | 96 | 0.3 | - | - | - | - | - | 1017.9 | 1017.7 | 0.0 | |
| 07/01:00am | 4.8 | - | 4.1 | 95 | 0.3 | - | - | - | - | - | 1018.1 | 1017.9 | 0.0 | |
| 07/12:30am | 6.2 | - | 5.6 | 96 | 0.3 | - | - | - | - | - | 1018.2 | 1018.0 | 0.0 | |
| 07/12:00am | 6.4 | - | 5.5 | 94 | 0.4 | - | - | - | - | - | 1018.3 | 1018.1 | 0.0 | |
| Date/Time EST |
Temp °C |
App Temp °C |
Dew Point °C |
Rel Hum % |
Delta-T °C |
Wind | Press QNH hPa |
Press MSL hPa |
Rain since 9am mm |
||||
|---|---|---|---|---|---|---|---|---|---|---|---|---|---|
| Dir | Spd km/h |
Gust km/h |
Spd kts |
Gust kts |
|||||||||
| 06/11:30pm | 7.7 | - | 6.5 | 92 | 0.6 | - | - | - | - | - | 1018.2 | 1018.0 | 0.0 |
| 06/11:00pm | 6.1 | - | 5.5 | 96 | 0.3 | - | - | - | - | - | 1018.3 | 1018.1 | 0.0 |
| 06/10:30pm | 7.1 | - | 5.9 | 92 | 0.6 | - | - | - | - | - | 1018.5 | 1018.4 | 0.0 |
| 06/10:00pm | 6.8 | - | 5.6 | 92 | 0.6 | - | - | - | - | - | 1018.8 | 1018.7 | 0.0 |
| 06/09:30pm | 9.0 | - | 6.8 | 86 | 1.1 | - | - | - | - | - | 1019.0 | 1018.9 | 0.0 |
| 06/09:00pm | 9.8 | - | 7.1 | 83 | 1.3 | - | - | - | - | - | 1019.1 | 1019.0 | 0.0 |
| 06/08:30pm | 8.1 | - | 6.1 | 87 | 1.0 | - | - | - | - | - | 1019.0 | 1018.9 | 0.0 |
| 06/08:00pm | 9.3 | - | 5.5 | 77 | 1.8 | - | - | - | - | - | 1018.7 | 1018.6 | 0.0 |
| 06/07:30pm | 11.1 | - | 6.5 | 73 | 2.3 | - | - | - | - | - | 1018.6 | 1018.5 | 0.0 |
| 06/07:00pm | 11.7 | - | 6.4 | 70 | 2.6 | - | - | - | - | - | 1018.5 | 1018.4 | 0.0 |
| 06/06:30pm | 12.3 | - | 6.8 | 69 | 2.7 | - | - | - | - | - | 1018.4 | 1018.3 | 0.0 |
Other formats
Comma delimited format used in spreadsheet applications
http://www.bom.gov.au/fwo/IDN60801/IDN60801.94158.axf
JavaScript Object Notation format (JSON) in row-major order
http://www.bom.gov.au/fwo/IDN60801/IDN60801.94158.json
Data quality
Most of these data are generated automatically and are frequently updated. Quality checks on data are not normally performed. It is possible for incorrect values to appear. Refer to information at About Latest Weather Observations and please check the disclaimer before using these data.
